SCP
0 0 0 0 0 -0 -0 -0 -0 -0 -0 -0 -0 -0 -0 -0 -0 -0 -0 0 -0 -0 -0 -0 -0 -0 -0 0 0 0 0 0
0 0 0 0 0 -0 -0 -0 -0 -0 -0 -0 -0 -0 -0 -0 -0 -0 -0 0 -0 -0 -0 -0 -0 -0 0 0 0 0 0 0
0 0 0 -0 -0 -0 -0 -0 -0 -0 -0 -0 -0 -0 -0 -0 -0 -0 -0 0 -0 -0 -0 -0 -0 0 0 0 0 0 0 0
0 -0 -0 -0 -0 -0 -0 -0 -0 -0 -0 -0 -0 -0 -0 -0 -0 -0 -0 -0 0 -0 -0 -0 0 0 0 0 0 0 0 0
-0 -0 -0 -0 -0 -0 -0 -0 -0 -0 -0 -0 -0 -0 -0 -0 -0 -0 -0 0 0 -0 -0 0 0 0 0 0 0 0 0 0
-0 -0 -0 -0 -0 -0 -0 -0 -0 -0 -0 -0 -0 -0 -0 -0 -0 -0 0 -0 0 0 0 0 0 0 0 0 0 0 0 0
-0 0 -0 -0 -0 -0 -0 -0 -0 -0 -0 -0 -0 -0 -0 -0 -0 0 0 -0 -0 0 0 0 0 0 0 0 0 0 0 0
-0 -0 -0 -0 -0 -0 -0 -0 -0 -0 -0 -0 -0 -0 -0 -0 -0 -0 -0 -0 -0 -0 -0 0 0 0 0 0 0 0 0 0
-0 -0 -0 -0 -0 -0 -0 -0 -0 -0 0 0 -0 -0 -0 0 -0 -0 -0 -0 0 0 0 0 0 0 0 0 0 0 0 0
-0 -0 -0 -0 -0 -0 0 0 0 -0 -0 -0 -0 -0 0 0 0 0 0 0 0 0 0 0 0 0 0 0 0 0 0 0
-0 -0 -0 -0 -0 -0 -0 -0 -0 -0 -0 0 0 0 0 0 0 0 0 0 0 0 0 0 0 0 0 0 0 0 0 0
0 0 -0 -0 -0 -0 -0 -0 -0 0 -0 0 0 0 0 0 0 0 0 0 0 0 0 0 0 0 0 0 0 0 0 0
-0 -0 0 -0 -0 -0 -0 -0 -0 0 0 0 0 0 0 0 0 0 0 0 0 0 0 0 0 0 0 0 0 0 0 0
-0 -0 0 0 0 0 -0 -0 0 0 0 0 0 0 0 0 0 0 0 0 0 0 0 0 0 0 0 0 0 0 0 0
-0 -0 -0 0 0 0 0 0 0 0 0 0 0 0 0 0 1 0 0 0 0 0 0 0 0 0 0 0 0 0 0 0
-0 -0 -0 0 0 0 0 0 0 0 0 0 0 0 0 0 0 0 0 0 0 0 0 0 0 0 0 0 0 0 0 0
-0 -0 0 0 0 0 0 0 1 1 0 0 0 0 0 0 0 0 0 0 0 0 0 0 0 0 0 0 0 0 0 0
0 0 0 0 0 0 0 1 1 0 1 1 0 0 0 0 0 0 0 0 0 0 0 0 0 0 0 0 0 0 0 0
0 0 0 0 0 0 0 1 1 2 2 1 1 0 0 0 0 0 0 0 0 0 0 0 0 0 0 0 0 0 0 0
Wind_Speed_500mb
60 61 61 55 49 42 41 40 37 34 30 28 28 27 25 21 17 15 20 25 27 27 25 23 19 16 12 10 10 10 10 12
57 59 59 54 48 42 40 40 36 32 28 27 28 26 23 20 15 14 18 22 24 24 23 21 17 14 11 10 11 13 16 18
53 58 58 53 47 43 41 39 35 31 29 28 26 25 23 20 15 13 18 21 21 21 20 17 15 15 14 14 15 17 20 18
54 56 56 51 48 44 42 40 36 34 30 27 26 26 23 20 17 15 17 20 21 20 18 16 16 16 16 18 18 19 18 15
54 54 54 51 48 47 46 43 39 34 31 28 28 27 24 22 19 17 18 20 21 20 18 17 16 18 21 21 21 19 20 23
54 53 51 51 51 50 47 44 41 38 35 33 31 29 27 25 22 20 19 19 22 21 18 17 17 20 23 22 22 23 25 28
54 52 50 51 53 52 50 47 45 43 41 37 33 31 29 26 24 24 22 21 22 21 21 19 20 19 22 22 23 27 31 33
49 57 52 54 55 56 54 50 47 45 42 38 36 35 31 30 29 27 26 28 24 20 20 22 23 23 23 25 29 31 34 42
59 53 49 53 57 57 55 52 48 47 43 40 39 37 35 34 33 31 29 28 28 25 27 28 26 28 30 33 35 36 42 47
60 57 51 52 53 57 58 54 52 49 45 39 39 39 38 37 35 31 30 29 28 29 29 29 31 32 33 34 35 40 45 48
60 60 58 54 54 56 56 54 52 51 46 42 37 38 39 37 33 32 30 30 30 30 33 36 34 32 33 35 39 43 46 47
61 58 64 57 55 61 56 52 53 52 51 46 36 34 36 35 34 35 32 28 27 32 31 35 37 35 37 40 42 44 43 42
69 66 57 62 61 60 59 54 50 47 50 47 43 39 39 39 40 42 40 38 28 39 39 36 37 40 41 44 43 43 41 46
72 69 64 65 64 60 60 58 53 48 51 51 51 47 46 48 48 48 47 41 49 50 31 57 43 44 44 42 43 42 45 48
76 76 73 65 66 64 64 65 60 59 57 58 56 55 53 53 51 51 55 53 33 31 38 56 47 42 41 42 40 42 47 45
82 84 84 78 71 73 72 68 69 69 67 67 63 62 62 56 58 57 58 58 32 43 50 48 44 40 39 37 38 43 42 29
87 80 90 86 81 79 79 78 75 72 71 71 65 65 66 59 58 55 59 61 42 49 36 42 40 35 35 33 37 39 15 22
94 92 88 91 80 79 82 84 82 81 79 76 71 66 64 62 57 62 61 54 33 30 44 42 32 30 30 32 32 23 10 11
78 91 84 85 79 78 81 86 88 86 84 79 74 66 63 62 61 67 67 55 25 43 53 32 28 28 30 29 29 26 21 20
Wind_Direction_500mb
183 180 179 181 186 187 185 182 180 178 176 173 172 175 174 171 170 169 167 162 162 165 169 168 170 173 179 188 210 231 257 281
183 182 182 185 188 191 190 188 185 182 180 180 181 181 180 181 179 174 171 169 172 174 178 181 184 198 212 227 244 262 275 288
186 184 185 188 192 195 194 194 190 188 189 189 188 189 189 190 191 187 183 181 183 184 188 193 204 221 237 249 262 279 290 292
189 186 188 191 195 198 199 198 196 196 197 196 197 198 199 200 204 206 199 193 191 194 198 207 221 236 252 260 271 285 288 288
191 191 190 195 198 200 201 202 203 204 206 205 206 207 208 211 216 220 212 203 200 203 208 219 236 247 255 263 275 281 286 287
195 197 196 198 202 204 205 206 208 211 212 213 214 215 217 220 225 227 219 215 210 210 215 231 250 257 266 273 274 286 294 295
198 201 203 204 207 207 208 210 213 215 217 218 220 222 225 228 233 235 226 223 209 221 238 244 257 273 284 278 277 291 295 297
189 198 204 209 211 212 213 214 217 220 222 224 226 227 229 234 239 241 235 228 234 239 243 256 265 274 287 285 292 296 298 302
201 200 204 212 214 216 219 221 223 224 226 229 231 232 234 239 244 247 238 234 243 249 256 263 274 279 287 290 291 294 299 303
211 210 208 213 216 220 222 225 226 227 229 233 237 239 240 245 248 246 240 244 250 254 262 274 279 277 282 285 289 297 302 307
218 218 217 220 220 222 225 229 231 231 232 233 241 242 243 244 241 239 244 249 255 263 271 274 274 275 282 287 292 297 301 300
222 222 223 227 229 227 229 232 236 236 233 233 239 237 237 239 238 243 251 260 273 270 273 271 277 277 282 286 290 295 300 303
228 227 228 229 231 231 233 233 234 232 232 235 237 238 239 245 249 251 252 256 270 278 270 280 282 276 280 285 291 298 300 306
235 235 234 232 235 235 235 235 238 239 238 240 241 243 245 248 253 257 259 262 266 266 278 297 278 273 280 284 291 293 300 304
240 240 242 242 238 238 239 238 239 239 240 243 244 245 248 251 255 256 257 251 260 330 270 277 267 270 275 283 288 298 304 308
245 245 240 242 243 239 237 239 241 243 244 246 247 247 250 253 253 250 252 245 226 287 267 264 265 273 275 283 298 303 306 313
245 243 247 242 244 244 245 245 245 247 252 254 255 252 250 250 250 252 255 250 253 284 278 261 268 267 276 292 301 306 306 299
243 243 244 250 244 249 250 249 248 251 253 256 256 256 251 252 258 260 246 267 265 310 286 255 261 270 281 295 297 297 293 245
247 245 246 249 252 251 253 254 251 252 255 259 259 261 257 258 268 260 243 268 235 291 265 253 264 274 289 296 293 294 286 277
Wind_Speed_850mb
60 61 61 55 49 42 41 40 37 34 30 28 28 27 25 21 17 15 20 25 27 27 25 23 19 16 12 10 10 10 10 12
57 59 59 54 48 42 40 40 36 32 28 27 28 26 23 20 15 14 18 22 24 24 23 21 17 14 11 10 11 13 16 18
53 58 58 53 47 43 41 39 35 31 29 28 26 25 23 20 15 13 18 21 21 21 20 17 15 15 14 14 15 17 20 18
54 56 56 51 48 44 42 40 36 34 30 27 26 26 23 20 17 15 17 20 21 20 18 16 16 16 16 18 18 19 18 15
54 54 54 51 48 47 46 43 39 34 31 28 28 27 24 22 19 17 18 20 21 20 18 17 16 18 21 21 21 19 20 23
54 53 51 51 51 50 47 44 41 38 35 33 31 29 27 25 22 20 19 19 22 21 18 17 17 20 23 22 22 23 25 28
54 52 50 51 53 52 50 47 45 43 41 37 33 31 29 26 24 24 22 21 22 21 21 19 20 19 22 22 23 27 31 33
49 57 52 54 55 56 54 50 47 45 42 38 36 35 31 30 29 27 26 28 24 20 20 22 23 23 23 25 29 31 34 42
59 53 49 53 57 57 55 52 48 47 43 40 39 37 35 34 33 31 29 28 28 25 27 28 26 28 30 33 35 36 42 47
60 57 51 52 53 57 58 54 52 49 45 39 39 39 38 37 35 31 30 29 28 29 29 29 31 32 33 34 35 40 45 48
60 60 58 54 54 56 56 54 52 51 46 42 37 38 39 37 33 32 30 30 30 30 33 36 34 32 33 35 39 43 46 47
61 58 64 57 55 61 56 52 53 52 51 46 36 34 36 35 34 35 32 28 27 32 31 35 37 35 37 40 42 44 43 42
69 66 57 62 61 60 59 54 50 47 50 47 43 39 39 39 40 42 40 38 28 39 39 36 37 40 41 44 43 43 41 46
72 69 64 65 64 60 60 58 53 48 51 51 51 47 46 48 48 48 47 41 49 50 31 57 43 44 44 42 43 42 45 48
76 76 73 65 66 64 64 65 60 59 57 58 56 55 53 53 51 51 55 53 33 31 38 56 47 42 41 42 40 42 47 45
82 84 84 78 71 73 72 68 69 69 67 67 63 62 62 56 58 57 58 58 32 43 50 48 44 40 39 37 38 43 42 29
87 80 90 86 81 79 79 78 75 72 71 71 65 65 66 59 58 55 59 61 42 49 36 42 40 35 35 33 37 39 15 22
94 92 88 91 80 79 82 84 82 81 79 76 71 66 64 62 57 62 61 54 33 30 44 42 32 30 30 32 32 23 10 11
78 91 84 85 79 78 81 86 88 86 84 79 74 66 63 62 61 67 67 55 25 43 53 32 28 28 30 29 29 26 21 20
Wind_Direction_850mb
183 180 179 181 186 187 185 182 180 178 176 173 172 175 174 171 170 169 167 162 162 165 169 168 170 173 179 188 210 231 257 281
183 182 182 185 188 191 190 188 185 182 180 180 181 181 180 181 179 174 171 169 172 174 178 181 184 198 212 227 244 262 275 288
186 184 185 188 192 195 194 194 190 188 189 189 188 189 189 190 191 187 183 181 183 184 188 193 204 221 237 249 262 279 290 292
189 186 188 191 195 198 199 198 196 196 197 196 197 198 199 200 204 206 199 193 191 194 198 207 221 236 252 260 271 285 288 288
191 191 190 195 198 200 201 202 203 204 206 205 206 207 208 211 216 220 212 203 200 203 208 219 236 247 255 263 275 281 286 287
195 197 196 198 202 204 205 206 208 211 212 213 214 215 217 220 225 227 219 215 210 210 215 231 250 257 266 273 274 286 294 295
198 201 203 204 207 207 208 210 213 215 217 218 220 222 225 228 233 235 226 223 209 221 238 244 257 273 284 278 277 291 295 297
189 198 204 209 211 212 213 214 217 220 222 224 226 227 229 234 239 241 235 228 234 239 243 256 265 274 287 285 292 296 298 302
201 200 204 212 214 216 219 221 223 224 226 229 231 232 234 239 244 247 238 234 243 249 256 263 274 279 287 290 291 294 299 303
211 210 208 213 216 220 222 225 226 227 229 233 237 239 240 245 248 246 240 244 250 254 262 274 279 277 282 285 289 297 302 307
218 218 217 220 220 222 225 229 231 231 232 233 241 242 243 244 241 239 244 249 255 263 271 274 274 275 282 287 292 297 301 300
222 222 223 227 229 227 229 232 236 236 233 233 239 237 237 239 238 243 251 260 273 270 273 271 277 277 282 286 290 295 300 303
228 227 228 229 231 231 233 233 234 232 232 235 237 238 239 245 249 251 252 256 270 278 270 280 282 276 280 285 291 298 300 306
235 235 234 232 235 235 235 235 238 239 238 240 241 243 245 248 253 257 259 262 266 266 278 297 278 273 280 284 291 293 300 304
240 240 242 242 238 238 239 238 239 239 240 243 244 245 248 251 255 256 257 251 260 330 270 277 267 270 275 283 288 298 304 308
245 245 240 242 243 239 237 239 241 243 244 246 247 247 250 253 253 250 252 245 226 287 267 264 265 273 275 283 298 303 306 313
245 243 247 242 244 244 245 245 245 247 252 254 255 252 250 250 250 252 255 250 253 284 278 261 268 267 276 292 301 306 306 299
243 243 244 250 244 249 250 249 248 251 253 256 256 256 251 252 258 260 246 267 265 310 286 255 261 270 281 295 297 297 293 245
247 245 246 249 252 251 253 254 251 252 255 259 259 261 257 258 268 260 243 268 235 291 265 253 264 274 289 296 293 294 286 277